Temp
21 21 21 20 20 20 20 20 20 19 19 20 20 20 20 19 19 19 19 19 18 18 18 17 17 17 16 16 16 16 16 16 16 15 15 14 14 14 14 14 13 13 13
22 21 21 20 20 20 19 19 19 19 19 19 19 19 19 19 19 19 19 18 18 18 18 18 17 17 16 16 16 16 16 16 15 15 15 14 14 14 14 14 14 12 12
22 21 21 20 20 20 19 19 19 19 19 19 18 18 18 18 18 18 18 18 18 18 18 18 17 17 16 16 16 16 16 16 15 15 14 14 14 13 13 13 14 14 13
22 22 21 20 20 20 19 19 19 19 18 18 18 18 18 18 18 18 19 19 18 18 18 18 17 17 16 16 15 15 15 15 15 15 15 14 14 14 14 12 12 13 14
21 22 21 21 20 20 20 19 19 19 18 18 18 18 18 18 18 18 18 18 18 18 18 18 17 17 16 15 15 15 15 15 15 15 15 15 14 14 14 14 13 12 12
21 21 21 20 20 20 20 19 19 19 18 18 18 18 18 18 18 18 18 18 18 18 18 18 17 17 16 15 15 15 15 15 15 15 15 14 14 15 15 15 15 14 13
20 20 20 20 20 20 20 19 19 18 18 18 18 18 17 17 17 18 18 18 17 17 17 17 17 17 16 16 15 15 15 14 14 15 15 14 14 14 15 15 15 16 15
20 19 19 20 20 20 20 19 19 18 18 18 17 17 17 17 17 17 17 17 17 17 17 17 16 16 16 16 15 15 15 14 14 14 14 14 14 14 14 16 16 16 15
19 19 19 19 19 19 19 19 19 18 18 17 17 17 17 17 17 17 17 17 17 17 17 16 16 15 15 15 15 15 15 15 14 14 14 14 14 14 15 14 15 15 15
20 19 19 19 19 19 19 19 18 18 18 17 17 17 16 16 17 17 17 17 17 17 17 16 16 16 16 15 15 15 14 14 14 14 14 14 14 14 14 14 14 15 15
20 20 19 19 19 19 19 19 18 18 17 17 17 17 17 17 16 17 17 17 17 16 16 16 16 15 16 15 15 15 14 14 14 14 14 14 14 14 14 14 14 15 15
21 21 20 20 19 19 19 19 18 18 18 18 17 17 17 16 16 16 16 16 16 16 16 16 16 15 15 15 15 15 14 14 14 14 14 14 14 14 14 13 14 14 15
21 21 21 20 20 20 19 19 18 17 17 17 17 16 16 16 16 16 16 16 16 16 15 15 15 15 15 15 14 14 14 14 14 14 14 14 14 14 14 14 13 14 14
20 20 20 20 19 19 19 18 17 17 16 16 16 15 15 15 15 15 15 15 16 16 15 14 14 14 14 14 14 14 14 14 14 14 14 14 13 13 14 13 13 13 13
20 19 19 19 18 18 17 17 16 16 16 15 15 15 15 15 15 15 15 15 15 15 15 15 14 14 14 14 14 14 14 14 13 13 13 13 13 13 13 13 13 13 13
19 19 18 18 17 17 17 16 15 15 15 16 15 15 16 16 16 16 15 15 15 15 14 14 14 14 14 14 14 14 14 13 13 13 13 13 12 13 13 13 13 12 13
19 18 18 17 17 16 16 16 15 15 15 15 15 15 15 15 16 16 16 15 15 14 14 14 13 13 13 13 14 14 14 14 13 13 13 13 13 12 12 12 13 12 13
19 19 18 17 16 15 16 16 14 15 15 15 15 15 15 15 15 15 15 15 14 13 14 14 13 13 13 13 13 13 14 14 14 14 13 13 13 12 12 12 12 12 12
18 19 19 17 15 15 15 14 14 14 15 14 14 14 14 14 14 14 14 14 14 13 13 13 13 13 13 12 12 13 12 13 14 13 13 14 14 13 13 13 12 12 12
19 18 17 16 16 15 15 15 14 14 14 14 14 15 15 14 14 14 13 12 12 12 12 12 12 12 12 12 12 12 12 12 12 13 13 13 13 13 14 13 13 12 12
16 16 16 15 15 16 15 14 14 14 14 15 15 15 15 15 14 14 14 13 12 12 12 12 12 10 11 10 10 11 11 11 11 12 12 13 12 12 12 13 13 12 12
15 15 15 15 14 14 14 14 15 15 14 14 14 13 13 13 12 12 12 13 12 12 12 11 10 10 10 9 9 10 10 11 11 11 12 12 11 12 12 12 12 12 12
14 14 14 14 13 14 14 15 14 14 13 13 13 13 13 12 12 11 11 11 11 10 9 9 9 9 8 9 9 9 8 9 9 10 10 10 10 10 10 11 11 11 11
14 14 14 14 14 14 14 14 14 14 14 13 13 12 11 11 10 10 10 10 9 9 9 8 8 8 8 8 8 8 8 8 7 8 9 9 9 10 11 11 11 11 11
14 14 14 14 14 13 13 13 13 12 12 11 11 11 10 10 10 9 9 8 8 8 8 7 7 7 7 7 7 6 6 6 7 6 7 7 8 8 9 9 10 11 10
13 13 13 13 13 12 12 12 12 11 11 10 10 9 9 8 8 8 8 8 8 8 7 7 7 7 7 7 7 7 6 5 4 4 4 5 6 7 8 8 7 8 9
Height
1511 1514 1517 1519 1522 1524 1527 1527 1529 1529 1531 1531 1532 1532 1533 1534 1535 1536 1537 1537 1538 1538 1539 1539 1540 1540 1540 1540 1539 1539 1539 1539 1539 1539 1539 1539 1539 1539 1538 1538 1539 1539 1540
1511 1513 1516 1519 1522 1524 1527 1528 1530 1531 1532 1534 1534 1534 1535 1536 1536 1537 1538 1539 1540 1540 1540 1541 1541 1541 1541 1541 1540 1540 1540 1540 1540 1540 1539 1539 1540 1539 1539 1539 1539 1540 1540
1511 1514 1517 1520 1523 1525 1527 1529 1530 1532 1534 1536 1537 1537 1537 1538 1538 1539 1540 1541 1541 1542 1542 1542 1543 1543 1543 1543 1542 1541 1541 1541 1540 1541 1541 1540 1540 1540 1539 1538 1539 1539 1540
1512 1515 1518 1521 1524 1526 1528 1530 1532 1534 1535 1536 1538 1538 1540 1540 1540 1540 1541 1541 1542 1543 1543 1543 1544 1544 1544 1544 1544 1543 1542 1542 1542 1542 1542 1541 1540 1541 1541 1540 1540 1539 1539
1513 1516 1519 1522 1525 1528 1530 1531 1533 1535 1536 1538 1539 1540 1541 1541 1542 1542 1542 1542 1542 1543 1543 1544 1545 1545 1546 1545 1545 1543 1543 1543 1543 1543 1543 1542 1542 1542 1542 1542 1541 1541 1540
1515 1517 1520 1523 1526 1529 1530 1532 1534 1536 1537 1538 1540 1540 1541 1542 1542 1543 1543 1543 1543 1543 1543 1544 1545 1546 1546 1546 1545 1544 1544 1544 1544 1544 1544 1543 1543 1543 1543 1542 1542 1542 1541
1516 1518 1521 1523 1526 1529 1531 1532 1534 1536 1538 1539 1540 1541 1542 1543 1543 1543 1544 1544 1544 1544 1544 1545 1545 1545 1546 1546 1546 1544 1544 1545 1545 1545 1544 1544 1544 1544 1544 1544 1543 1543 1542
1518 1519 1521 1523 1527 1530 1531 1533 1535 1536 1538 1540 1541 1542 1543 1543 1544 1544 1544 1545 1545 1545 1546 1546 1546 1546 1546 1546 1545 1544 1544 1544 1545 1545 1545 1545 1545 1544 1544 1544 1544 1543 1542
1518 1519 1521 1524 1526 1529 1531 1533 1534 1536 1538 1539 1541 1542 1543 1544 1544 1545 1545 1546 1546 1546 1546 1546 1546 1546 1546 1546 1546 1544 1543 1543 1543 1544 1545 1546 1545 1545 1544 1544 1544 1544 1543
1518 1519 1522 1524 1526 1529 1531 1533 1535 1536 1538 1539 1541 1542 1543 1544 1544 1544 1545 1545 1546 1546 1546 1546 1546 1546 1545 1545 1545 1544 1542 1543 1542 1542 1544 1544 1545 1545 1545 1544 1544 1544 1543
1518 1519 1522 1524 1526 1529 1531 1533 1534 1536 1537 1539 1541 1541 1542 1544 1544 1545 1545 1545 1545 1545 1545 1545 1545 1545 1545 1545 1545 1545 1541 1542 1541 1540 1541 1542 1543 1544 1544 1544 1544 1543 1542
1518 1520 1521 1524 1526 1528 1530 1532 1533 1535 1536 1538 1540 1541 1542 1543 1544 1544 1544 1544 1544 1543 1543 1542 1542 1542 1543 1543 1544 1543 1542 1541 1540 1539 1539 1540 1540 1541 1542 1542 1542 1541 1541
1517 1519 1521 1523 1525 1528 1530 1531 1533 1535 1537 1538 1539 1539 1540 1541 1541 1542 1542 1542 1542 1543 1543 1542 1542 1541 1541 1541 1541 1541 1540 1539 1538 1538 1538 1538 1538 1538 1539 1539 1540 1540 1539
1515 1518 1520 1522 1524 1526 1528 1530 1532 1534 1536 1537 1538 1538 1538 1539 1540 1540 1540 1540 1540 1540 1540 1540 1540 1539 1539 1539 1538 1537 1537 1536 1536 1536 1536 1536 1537 1537 1536 1537 1537 1537 1537
1512 1516 1519 1521 1522 1524 1526 1528 1530 1533 1535 1536 1537 1538 1537 1538 1538 1538 1539 1539 1539 1539 1538 1538 1537 1537 1536 1536 1535 1535 1534 1534 1533 1533 1533 1533 1533 1533 1534 1533 1533 1534 1534
1510 1514 1517 1519 1521 1523 1525 1527 1529 1532 1535 1536 1536 1537 1537 1537 1537 1537 1537 1537 1537 1537 1537 1536 1535 1535 1534 1533 1532 1532 1532 1532 1531 1530 1530 1530 1530 1529 1529 1529 1530 1530 1530
1508 1511 1514 1517 1520 1522 1524 1527 1530 1532 1533 1534 1534 1535 1536 1535 1535 1535 1534 1534 1534 1534 1534 1534 1532 1531 1530 1529 1528 1527 1527 1527 1528 1528 1527 1527 1527 1525 1526 1525 1525 1525 1526
1507 1510 1512 1515 1519 1521 1523 1526 1528 1530 1532 1532 1534 1533 1533 1532 1532 1532 1531 1531 1531 1531 1530 1530 1529 1527 1526 1525 1523 1522 1521 1520 1520 1521 1522 1522 1522 1524 1521 1521 1521 1521 1521
1505 1508 1510 1513 1517 1520 1523 1525 1527 1529 1530 1531 1530 1530 1530 1530 1530 1529 1528 1528 1527 1526 1526 1525 1524 1523 1521 1519 1517 1516 1515 1513 1512 1512 1512 1513 1514 1513 1516 1515 1514 1515 1516
1504 1506 1508 1511 1516 1519 1522 1524 1526 1528 1529 1529 1529 1529 1528 1527 1526 1525 1525 1524 1523 1522 1522 1521 1520 1519 1516 1513 1510 1507 1505 1504 1505 1502 1504 1505 1504 1505 1505 1506 1507 1507 1508
1503 1506 1508 1511 1515 1518 1520 1522 1525 1526 1527 1528 1528 1527 1526 1525 1524 1523 1522 1521 1519 1518 1517 1516 1513 1512 1510 1509 1505 1501 1498 1497 1496 1495 1495 1495 1494 1496 1497 1497 1499 1499 1500
1502 1506 1509 1511 1513 1516 1518 1520 1522 1523 1524 1525 1525 1525 1524 1523 1523 1522 1520 1519 1518 1515 1514 1513 1511 1508 1506 1506 1505 1501 1493 1492 1492 1491 1489 1486 1486 1487 1487 1487 1490 1491 1492
1501 1505 1508 1511 1513 1514 1516 1518 1520 1521 1523 1523 1524 1523 1522 1520 1519 1518 1516 1514 1513 1511 1509 1507 1506 1504 1500 1501 1502 1502 1496 1491 1487 1485 1482 1481 1479 1478 1478 1478 1480 1482 1483
1500 1504 1507 1510 1512 1514 1515 1517 1519 1520 1521 1521 1520 1520 1519 1518 1517 1515 1514 1512 1511 1509 1507 1505 1503 1501 1498 1495 1495 1494 1493 1491 1485 1477 1478 1475 1475 1472 1471 1471 1471 1473 1474
1501 1503 1505 1509 1511 1513 1514 1516 1517 1518 1519 1518 1518 1517 1517 1516 1514 1512 1511 1509 1507 1505 1503 1502 1500 1497 1495 1494 1491 1487 1485 1483 1482 1478 1468 1466 1466 1464 1464 1463 1462 1462 1465
1498 1501 1504 1507 1509 1511 1512 1513 1514 1515 1515 1515 1514 1514 1513 1513 1511 1510 1507 1505 1504 1501 1499 1496 1495 1493 1491 1488 1485 1483 1479 1479 1477 1474 1471 1464 1459 1459 1455 1456 1454 1453 1456
Wind_Speed
18 24 24 23 23 23 21 20 18 17 15 13 14 14 12 11 9 10 11 10 10 10 9 9 9 9 9 8 7 6 6 6 6 6 7 9 9 9 8 8 8 9 8
20 25 25 24 23 23 23 21 18 17 16 15 14 13 11 10 10 10 10 9 8 8 9 9 9 9 9 7 6 6 7 6 6 7 9 9 8 5 7 7 5 8 12
22 25 25 25 23 23 23 21 19 17 15 13 12 11 10 9 9 9 9 8 8 7 7 7 7 8 8 6 6 6 5 4 5 6 9 9 10 10 7 8 6 4 5
20 23 24 24 23 23 22 21 19 17 14 13 11 9 7 7 7 8 9 8 7 7 7 7 7 7 6 6 5 4 2 1 4 5 7 9 10 9 10 9 7 6 4
22 21 24 24 23 22 21 20 19 16 14 12 9 7 6 4 4 5 7 8 7 7 6 6 6 6 7 5 4 5 4 1 2 3 3 5 7 8 8 7 3 3 5
18 21 23 23 22 21 21 19 17 16 13 11 9 7 6 4 3 3 4 5 6 6 6 6 6 6 7 6 5 6 5 4 1 1 2 2 5 8 7 5 6 2 2
14 18 22 22 21 20 19 18 17 15 13 12 10 8 5 4 3 2 3 4 4 4 4 4 4 5 6 7 6 8 8 7 6 4 3 3 4 6 8 6 6 6 4
8 17 21 22 20 19 18 17 17 15 13 11 10 8 6 4 4 4 4 4 4 4 4 4 5 5 6 8 9 10 10 10 8 8 6 5 5 6 9 7 6 7 7
7 13 20 23 21 20 18 17 17 15 13 12 10 8 7 6 5 6 6 6 6 6 6 6 6 6 7 7 9 11 12 14 12 9 9 8 7 6 6 10 10 10 9
6 7 18 22 21 20 19 17 15 14 13 12 11 10 8 7 7 8 8 8 9 9 9 9 9 9 9 9 10 12 16 15 16 14 12 11 10 9 10 11 12 12 12
10 9 15 20 21 20 18 18 17 16 14 13 12 11 10 9 9 10 10 11 11 11 11 11 11 11 11 11 11 12 18 17 18 19 16 14 13 12 13 12 14 14 13
10 9 9 14 19 20 20 19 18 17 15 14 13 12 11 11 11 12 12 13 14 14 15 15 15 14 14 13 12 13 17 19 20 21 20 17 15 15 15 14 16 16 15
10 10 8 7 11 14 18 18 19 17 15 13 12 12 13 14 13 14 15 15 16 17 17 18 19 19 18 16 14 15 17 19 22 23 23 21 19 18 17 15 16 18 18
16 12 11 10 9 7 12 17 18 15 13 12 7 8 12 13 13 14 17 17 17 17 17 17 17 16 19 20 19 19 18 21 22 24 25 25 22 21 21 19 18 19 19
18 14 12 11 8 6 3 10 15 12 9 7 5 5 4 5 6 7 9 11 12 14 16 17 19 19 20 20 20 20 19 20 23 25 27 27 26 23 23 23 21 21 21
18 16 14 11 9 8 7 1 7 10 9 10 10 11 11 12 12 14 15 14 15 16 17 18 19 21 24 23 25 23 23 21 21 26 26 28 29 27 26 25 25 25 23
18 19 18 15 12 8 7 5 6 8 8 9 11 11 11 11 13 16 19 19 21 21 21 24 24 25 26 26 27 27 26 26 24 25 27 28 28 30 30 29 27 27 26
14 15 15 16 15 10 7 5 9 8 11 11 11 13 15 15 15 16 17 21 23 25 26 28 30 31 30 30 30 30 29 28 28 28 29 30 30 32 31 32 32 31 30
13 13 17 18 16 14 11 7 7 8 10 10 10 8 8 10 13 15 16 21 24 27 28 30 30 31 32 33 35 35 35 35 35 34 34 33 32 32 34 34 34 34 34
13 11 17 20 19 18 12 11 10 7 5 3 1 3 6 7 9 10 11 13 16 18 20 21 24 26 27 29 33 37 39 40 38 40 38 40 39 36 36 35 36 38 37
16 16 19 23 20 16 15 14 12 9 6 5 1 4 7 10 11 13 12 13 14 15 18 20 23 23 24 24 28 32 38 37 37 35 37 40 46 44 43 40 40 41 41
23 22 22 22 20 17 14 13 10 9 5 2 4 8 11 12 14 16 18 20 21 23 23 22 23 27 27 21 25 32 27 31 30 30 31 35 46 50 49 49 45 46 45
26 26 24 22 20 17 14 10 7 5 3 7 10 14 15 16 17 18 20 21 23 21 21 23 23 22 26 27 26 23 21 21 32 35 32 31 32 39 48 54 51 52 49
27 25 23 21 19 16 12 7 2 5 9 13 16 18 20 21 22 23 24 23 21 19 20 19 20 25 26 26 25 23 24 29 32 36 34 30 36 39 36 40 42 52 53
24 23 22 19 16 11 5 4 8 9 11 13 16 18 20 23 23 22 23 22 21 20 21 24 27 28 28 29 23 22 23 25 26 28 36 32 31 32 37 39 41 39 46
24 21 19 16 12 5 2 7 10 10 13 14 16 19 19 18 16 18 21 23 25 24 23 24 25 26 26 27 29 28 25 24 27 26 30 32 31 37 31 34 36 38 41
Wind_Direction
176 172 168 169 168 168 165 159 156 152 151 143 136 131 126 120 117 123 129 126 121 118 118 113 109 108 105 101 94 92 92 88 85 81 67 61 60 69 63 73 85 87 88
176 175 170 170 171 171 169 163 159 155 151 144 136 130 125 122 122 131 137 138 130 123 118 114 115 114 113 106 101 108 111 107 92 79 87 71 43 49 66 72 93 94 85
176 175 172 173 173 173 171 168 163 159 156 154 147 136 132 129 129 136 144 145 138 128 121 115 117 118 122 119 119 115 112 105 98 110 84 61 53 38 51 61 107 108 121
178 176 176 175 177 176 173 172 169 166 166 163 157 149 139 134 136 142 148 149 146 140 135 130 128 127 136 140 142 144 153 77 41 68 69 60 46 37 27 62 54 63 117
177 182 180 178 181 180 177 177 176 174 174 174 169 162 157 151 143 150 155 155 154 151 147 142 139 142 150 162 165 182 194 255 40 54 55 49 18 11 358 24 81 75 74
174 183 182 180 184 184 185 183 183 184 183 182 187 182 180 178 176 173 172 172 169 168 165 159 158 161 163 177 184 211 222 258 229 301 313 22 36 18 4 344 350 10 147
170 181 184 183 185 188 187 187 189 190 190 191 194 197 201 215 215 211 210 202 199 193 191 186 183 185 182 184 200 221 225 255 279 285 295 324 348 7 351 337 330 340 326
179 184 186 186 188 192 193 193 193 192 195 197 201 205 215 231 257 263 251 242 235 234 228 227 219 214 206 198 201 229 228 242 261 282 283 283 296 334 337 339 324 323 322
169 188 186 190 190 197 200 200 200 199 201 204 208 213 226 243 262 271 268 263 259 254 252 252 247 238 229 223 217 230 236 242 248 254 269 273 273 299 317 332 331 314 304
167 170 189 191 196 201 204 206 208 209 212 215 219 225 234 244 259 268 267 266 266 265 265 266 260 258 253 242 233 231 244 242 249 251 260 270 268 277 295 306 315 311 299
183 174 187 196 204 207 212 215 216 219 221 225 230 237 247 256 266 274 276 270 266 266 268 272 266 265 262 260 260 249 249 248 247 254 256 265 265 269 287 296 304 309 300
190 186 184 205 213 215 218 221 224 227 231 237 244 253 264 268 272 275 273 271 269 268 268 267 267 266 269 269 271 268 261 258 252 251 254 257 260 266 277 285 297 301 302
196 191 182 190 208 223 230 230 230 229 234 243 253 264 271 272 277 281 280 277 275 278 280 282 282 274 273 273 271 269 266 264 260 255 254 256 261 264 269 275 289 295 297
212 194 177 167 166 180 227 237 237 235 241 251 254 283 274 272 285 287 282 280 278 279 283 284 296 304 293 286 278 271 269 269 263 260 259 259 264 266 271 275 280 288 294
211 194 181 175 154 146 181 235 232 229 211 209 252 287 282 277 290 304 319 308 304 296 291 290 295 301 301 300 294 287 279 276 268 265 260 260 262 267 270 277 278 283 289
193 190 191 191 158 130 92 49 212 215 231 247 258 268 272 278 290 297 295 291 286 290 294 298 301 296 294 293 293 290 289 289 283 266 267 263 264 267 269 274 277 281 287
195 198 204 198 170 148 129 119 190 221 250 251 256 263 273 283 285 282 287 296 300 294 291 291 292 295 290 287 286 289 284 284 286 288 272 268 268 268 271 273 273 275 281
205 199 199 199 182 166 169 193 211 249 249 255 262 270 277 280 276 268 275 279 289 287 288 288 288 287 286 286 285 286 283 278 273 275 279 277 271 270 271 273 273 273 276
214 196 195 195 178 182 185 191 210 236 255 262 281 302 315 302 295 291 288 287 282 283 288 292 292 293 290 288 289 288 287 280 278 273 263 267 275 273 271 271 273 276 278
203 194 184 169 181 175 188 189 194 186 162 199 269 322 299 323 323 319 313 303 298 296 297 299 300 295 300 292 297 294 288 283 282 278 272 262 261 264 266 270 269 270 272
170 173 168 165 176 184 188 168 166 161 148 137 132 315 309 300 292 291 291 296 301 308 310 308 304 305 310 314 310 306 299 297 287 286 280 273 265 261 262 262 265 264 267
157 164 164 165 159 159 162 159 159 159 171 233 296 312 311 307 304 302 300 299 302 307 313 317 321 322 318 317 306 304 310 298 299 292 288 282 267 263 258 262 259 261 263
154 158 160 158 161 159 157 157 160 177 236 276 292 303 311 313 314 310 303 302 305 316 323 322 324 322 320 318 318 307 304 294 304 294 291 290 286 274 263 258 255 260 261
158 157 159 161 159 153 146 146 189 295 303 307 310 312 312 311 309 311 314 317 318 308 307 313 316 316 314 318 318 314 303 298 298 300 291 289 286 281 272 270 268 263 262
160 162 164 160 153 145 139 358 344 331 320 311 307 306 311 313 316 318 316 320 321 320 315 312 313 315 316 312 310 311 318 316 311 303 297 296 290 278 273 269 264 262 260
168 171 168 166 162 166 298 331 335 335 333 329 323 324 324 325 327 331 330 330 329 322 324 324 324 322 318 314 306 297 302 321 323 317 305 300 295 283 288 289 278 266 268